Home > Weather > Duluth > Past weeks

Flag for USA Past Weather in Duluth, Minnesota, USA — Yesterday and Last 2 Weeks

Now
43 °F

Overcast.


Feels Like: 33 °F
Forecast: 46 / 49 °F
Wind: 28 mph from Northeast

Location: Sky Harbor Airport

Current Time: May 31, 2016 at 11:16:26 AM

Latest Report: May 31, 2016 at 10:33 AM


Visibility: 10 mi

Pressure: 29.98 "Hg

Humidity: 93%

Dew Point: 41 °F

Location of DuluthLocation

Past Weather in Duluth — Graph

°F

Duluth Temperature Yesterday

Maximum temperature yesterday: 81 °F (at 1:14 PM)
Minimum temperature yesterday: 52 °F (at 10:14 PM)
Average temperature yesterday: 63 °F

High & Low Weather Summary for the Past Weeks

 TemperatureHumidityPressure
High81 °F (May 21, 12:34 PM)100% (May 23, 11:54 PM)30.37 "Hg (May 23, 11:54 PM)
Low36 °F (May 17, 6:13 AM)20% (May 21, 12:54 PM)29.70 "Hg (May 23, 1:33 PM)
Average52 °F79%30.00 "Hg
* Reported May 16 9:14 AM — May 31 9:53 AM, Duluth, Weather by CustomWeather, © 2016

Note: Actual official high and low records may vary slightly from our data, if they occured in-between our weather recording intervals... More about our weather records

Advertising

Duluth Weather History for the Previous 24 Hours

Scroll right to see more
 ConditionsComfort  
Time TempWeatherWind HumidityBarometerVisibility
9:53 AM
Tue, May 31
43 °FDrizzle. Overcast.28 mph93%29.98 "Hg10 mi
9:34 AM45 °FDrizzle. Overcast.26 mph87%29.98 "Hg10 mi
9:13 AM45 °FDrizzle. Overcast.31 mph87%29.99 "Hg10 mi
8:54 AM45 °FMostly cloudy.29 mph93%29.99 "Hg10 mi
8:13 AM45 °FCloudy.26 mph93%29.99 "Hg10 mi
7:54 AM45 °FMostly cloudy.24 mph93%29.99 "Hg10 mi
7:34 AM45 °FMore clouds than sun.26 mph93%29.98 "Hg10 mi
7:13 AM45 °FOvercast.26 mph93%29.99 "Hg10 mi
6:54 AM45 °FOvercast.23 mph93%29.99 "Hg10 mi
6:34 AM45 °FOvercast.25 mph93%29.99 "Hg10 mi
6:13 AM45 °FMostly cloudy.26 mph93%29.99 "Hg10 mi
5:54 AM45 °FMostly cloudy.24 mph93%29.99 "Hg10 mi
5:34 AM46 °FPassing clouds.24 mph87%30.00 "Hg10 mi
5:13 AM46 °FPassing clouds.23 mph87%30.01 "Hg10 mi
4:54 AM46 °FPassing clouds.23 mph87%30.02 "Hg10 mi
4:34 AM46 °FOvercast.24 mph87%30.01 "Hg10 mi
4:13 AM46 °FOvercast.25 mph87%30.01 "Hg10 mi
3:54 AM46 °FOvercast.23 mph87%30.02 "Hg10 mi
3:34 AM46 °FPassing clouds.23 mph87%30.02 "Hg10 mi
3:13 AM46 °FPassing clouds.29 mph87%30.01 "Hg10 mi
2:54 AM46 °FClear.26 mph87%30.00 "Hg10 mi
2:34 AM46 °FClear.26 mph93%30.01 "Hg10 mi
2:13 AM46 °FClear.29 mph93%30.01 "Hg10 mi
1:54 AM48 °FClear.29 mph87%30.01 "Hg10 mi
1:34 AM48 °FClear.33 mph87%30.00 "Hg10 mi
1:13 AM48 °FPassing clouds.36 mph87%29.99 "Hg10 mi
12:54 AM48 °FPassing clouds.35 mph94%29.99 "Hg10 mi
12:34 AM50 °FPartly cloudy.31 mph88%29.99 "Hg10 mi
12:13 AM50 °FPartly cloudy.35 mph88%29.99 "Hg10 mi
11:54 PM
Mon, May 30
52 °FMostly cloudy.35 mph82%29.98 "Hg10 mi
11:34 PM57 °FPassing clouds.21 mph72%29.98 "Hg10 mi
11:13 PM55 °FPartly cloudy.No wind77%29.97 "Hg10 mi
10:53 PM54 °FOvercast.No wind82%29.97 "Hg10 mi
10:34 PM54 °FPassing clouds.No wind77%29.96 "Hg10 mi
10:14 PM52 °FPassing clouds.3 mph82%29.96 "Hg10 mi
9:53 PM54 °FPassing clouds.8 mph77%29.95 "Hg10 mi
9:34 PM55 °FPartly sunny.6 mph72%29.96 "Hg10 mi
9:14 PM57 °FPartly sunny.8 mph67%29.96 "Hg10 mi
8:53 PM57 °FOvercast.No wind72%29.94 "Hg10 mi
8:34 PM63 °FPartly sunny.6 mph59%29.93 "Hg10 mi
8:14 PM61 °FMore clouds than sun.10 mph63%29.94 "Hg10 mi
7:53 PM61 °FScattered clouds.5 mph59%29.92 "Hg10 mi
7:34 PM61 °FPartly sunny.3 mph63%29.92 "Hg10 mi
7:13 PM63 °FPartly sunny.6 mph59%29.91 "Hg10 mi
6:53 PM61 °FDrizzle. Partly sunny.7 mph72%29.91 "Hg10 mi
6:34 PM63 °FPartly sunny.3 mph59%29.92 "Hg10 mi
6:13 PM61 °FScattered clouds.6 mph63%29.92 "Hg10 mi
5:53 PM61 °FScattered clouds.6 mph63%29.92 "Hg10 mi
5:34 PM66 °FScattered clouds.6 mph56%29.92 "Hg10 mi
5:13 PM72 °FSunny.6 mph50%29.91 "Hg10 mi
4:53 PM72 °FScattered clouds.8 mph47%29.91 "Hg10 mi
4:34 PM72 °FSunny.8 mph44%29.92 "Hg10 mi
4:13 PM72 °FSunny.9 mph44%29.92 "Hg10 mi
3:53 PM72 °FSunny.8 mph50%29.93 "Hg10 mi
3:33 PM72 °FSunny.8 mph44%29.93 "Hg10 mi
3:14 PM72 °FScattered clouds.7 mph53%29.94 "Hg10 mi
2:53 PM66 °FScattered clouds.9 mph64%29.94 "Hg10 mi
2:33 PM70 °FScattered clouds.9 mph57%29.94 "Hg10 mi
2:14 PM73 °FScattered clouds.7 mph50%29.94 "Hg10 mi
1:53 PM73 °FScattered clouds.6 mph47%29.94 "Hg10 mi
1:33 PM70 °FScattered clouds.7 mph57%29.94 "Hg10 mi
1:14 PM81 °FSunny.7 mph30%29.95 "Hg10 mi
12:53 PM79 °FSunny.6 mph30%29.95 "Hg10 mi
12:14 PM77 °FSunny.6 mph34%29.95 "Hg10 mi
11:53 AM77 °FSunny.5 mph36%29.96 "Hg10 mi
11:33 AM77 °FScattered clouds.7 mph36%29.96 "Hg10 mi
11:14 AM75 °FSunny.7 mph44%29.96 "Hg10 mi
Weather by CustomWeather, © 2016

See weather overviewHow to use our weather pages